Stations météo

réclame
Mon MeteoGroup
Lille, France (7015): Température de l'air & dewpoint: 11.01.2018 01:00:00 - 17.01.2018 01:00:00 (CET)Lille, France (7015): Température de l'air 5cm: 11.01.2018 01:00:00 - 17.01.2018 01:00:00 (CET)Lille, France (7015): Température de l'air -20cm & Température de l'air -100cm: 11.01.2018 01:00:00 - 17.01.2018 01:00:00 (CET)Lille, France (7015): Vitesse du vent & gusts: 11.01.2018 01:00:00 - 17.01.2018 01:00:00 (CET)Lille, France (7015): Direction du vent: 11.01.2018 01:00:00 - 17.01.2018 01:00:00 (CET)Lille, France (7015): reduced air pressure: 11.01.2018 01:00:00 - 17.01.2018 01:00:00 (CET)Lille, France (7015): visibility: 11.01.2018 01:00:00 - 17.01.2018 01:00:00 (CET)Lille, France (7015): Quantités de précipitations: 11.01.2018 01:00:00 - 17.01.2018 01:00:00 (CET)
Date & Time tt [°C] td [°C] tt 5cm [°C] tt -20cm [°C] tt -100cm [°C] ff [km/h] ff [knt] fx [km/h] fx [knt] dd ppp [hPa] vv [km] rr [mm]
17.01.2018 01:00:00 4,2 0,5 2,7 4,9 7,7 29 16 46 25 WSW 996,1 10 0,0
17.01.2018 00:00:00 4,2 1,2 2,9 5,0 7,7 24 13 41 22 SW 995,9 10 0,4
16.01.2018 23:00:00 3,9 2,3 1,6 5,2 7,7 22 12 45 24 SW 995,6 10 3,4
16.01.2018 22:00:00 4,5 2,2 3,3 5,3 7,7 22 12 46 25 WSW 995,7 10 0,8
16.01.2018 21:00:00 5,4 1,1 4,8 5,4 7,7 22 12 42 23 SW 996,0 10 0,0
16.01.2018 20:00:00 5,7 1,0 5,1 5,5 7,7 18 10 39 21 SW 996,4 10 0,0
16.01.2018 19:00:00 5,9 1,0 5,1 5,5 7,7 26 14 40 22 WSW 996,7 10 0,0
16.01.2018 18:00:00 5,9 -0,4 5,1 5,6 7,7 26 14 50 27 WSW 997,3 59 0,0
16.01.2018 17:00:00 6,3 0,6 5,5 5,7 7,7 31 17 48 26 WSW 997,5 57 0,0
16.01.2018 16:00:00 6,9 0,3 6,4 5,8 7,7 27 15 52 28 WSW 997,3 48 0,0
16.01.2018 15:00:00 7,5 0,9 7,0 5,8 7,7 33 18 54 29 W 997,3 38 0,0
16.01.2018 14:00:00 7,7 0,9 7,9 5,7 7,7 35 19 57 31 WSW 997,5 26 0,0
16.01.2018 13:00:00 8,2 1,1 8,8 5,6 7,7 39 21 61 33 W 997,9 15 0,0
16.01.2018 12:00:00 8,2 1,8 6,9 5,5 7,7 31 17 47 26 WSW 997,9 20 0,0
16.01.2018 11:00:00 7,0 1,7 6,6 5,5 7,7 28 15 53 29 W 997,5 32 0,0
16.01.2018 10:00:00 6,9 2,4 5,4 5,5 7,7 29 16 46 25 WSW 997,0 22 0,0
16.01.2018 09:00:00 6,3 2,7 5,5 5,6 7,7 27 15 45 25 WSW 996,0 54 0,0
16.01.2018 08:00:00 7,0 3,8 6,2 5,6 7,7 26 14 40 22 WSW 994,8 20 0,0
16.01.2018 07:00:00 7,3 4,1 6,1 5,6 7,8 32 17 47 26 WSW 994,5 47 0,0
16.01.2018 06:00:00 7,0 4,0 6,3 5,6 7,7 29 16 53 28 WSW 994,5 10 0,0
16.01.2018 05:00:00 6,9 4,4 6,0 5,6 7,7 20 11 31 17 SW 994,9 19 0,0
16.01.2018 04:00:00 6,5 4,2 5,8 5,6 7,8 20 11 36 19 SW 995,3 51 0,0
16.01.2018 03:00:00 6,6 3,9 5,9 5,6 7,8 26 14 39 21 SW 995,9 60 0,0
16.01.2018 02:00:00 7,0 4,5 5,8 5,7 7,8 29 16 41 22 WSW 996,3 20 0,2
16.01.2018 01:00:00 7,2 4,0 6,4 5,7 7,8 19 11 34 18 SW 996,8 19 0,0
16.01.2018 00:00:00 7,5 4,1 6,7 5,8 7,8 27 15 59 32 WSW 997,5 20 0,0
15.01.2018 23:00:00 7,3 4,1 6,4 5,8 7,8 31 17 45 24 WSW 996,8 51 0,0
15.01.2018 22:00:00 7,8 4,6 6,9 5,8 7,8 33 18 61 33 W 996,3 52 0,0
15.01.2018 21:00:00 8,8 6,2 7,7 5,8 7,8 32 18 58 32 WSW 995,5 20 0,0
15.01.2018 20:00:00 8,9 7,0 7,9 5,7 7,8 30 16 45 25 WSW 994,7 43 0,0
15.01.2018 19:00:00 8,2 7,6 7,2 5,5 7,8 25 14 46 25 SSW 994,1 16 2,4
15.01.2018 18:00:00 7,7 6,8 6,7 5,4 7,8 31 17 65 35 S 994,2 17 0,2
15.01.2018 17:00:00 7,2 6,1 6,2 5,3 7,8 42 23 67 36 S 994,9 19 0,2
15.01.2018 16:00:00 6,6 5,5 5,9 5,2 7,8 46 25 66 36 S 996,1 9 1,6
15.01.2018 15:00:00 6,5 5,1 5,8 5,1 7,8 41 22 74 40 S 997,8 8 2,2
15.01.2018 14:00:00 6,2 5,2 5,6 4,9 7,8 44 24 68 37 S 1000,2 7 1,0
15.01.2018 13:00:00 6,4 4,6 5,7 4,8 7,8 45 24 70 38 S 1002,6 4,2 0,0
15.01.2018 12:00:00 6,1 4,3 4,9 4,6 7,8 45 24 66 35 S 1004,2 17 0,4
15.01.2018 11:00:00 5,7 3,7 5,0 4,5 7,8 37 20 55 30 S 1007,2 14 0,0
15.01.2018 10:00:00 5,7 3,7 4,9 4,4 7,8 37 20 53 29 S 1008,1 12 0,0
15.01.2018 09:00:00 5,3 3,5 4,5 4,3 7,9 30 16 48 26 S 1009,2 14 0,0
15.01.2018 08:00:00 4,6 3,4 3,4 4,1 7,8 28 15 44 24 S 1010,6 10 0,0
15.01.2018 07:00:00 3,4 3,4 1,7 4,0 7,8 21 12 31 17 S 1012,0 6 0,0
15.01.2018 06:00:00 1,8 1,7 0,8 4,0 7,9 10 6 19 11 S 1013,6 0,6 0,0
15.01.2018 05:00:00 0,9 0,8 0,3 4,0 7,8 16 8 35 19 SSW 1014,2 1,5 0,0
15.01.2018 04:00:00 0,7 0,6 -1,2 4,1 7,9 26 14 38 21 S 1015,0 0,7 0,0
15.01.2018 03:00:00 0,1 -0,3 -1,3 4,2 7,9 8 4 11 6 S 1015,7 3,4 0,0
15.01.2018 02:00:00 0,3 -0,1 -1,8 4,3 7,9 8 4 15 8 S 1016,1 4,1 0,0
15.01.2018 01:00:00 0,6 0,2 -0,9 4,4 7,9 9 5 14 7 S 1016,9 2,5 0,0
15.01.2018 00:00:00 1,1 0,8 -1,8 4,6 7,9 9 5 12 6 S 1017,7 2,5 0,0
14.01.2018 23:00:00 0,9 0,3 -2,4 4,7 7,9 5 3 9 5 SSE 1017,8 2,8 0,0
14.01.2018 22:00:00 1,2 0,5 -1,5 4,9 7,9 6 3 8 5 S 1018,2 0,9 0,0
14.01.2018 21:00:00 1,8 0,8 -1,9 5,1 7,9 3 2 9 5 SSW 1018,5 0,6 0,0
14.01.2018 20:00:00 2,3 1,1 1,1 5,2 7,9 8 4 10 5 SSE 1018,0 4,7 0,0
14.01.2018 19:00:00 3,3 1,3 2,3 5,3 7,9 5 3 8 4 SE 1018,0 6 0,0
14.01.2018 18:00:00 3,6 1,5 2,8 5,3 7,9 7 4 13 7 S 1018,5 8 0,0
14.01.2018 17:00:00 4,5 1,7 4,3 5,3 7,9 8 5 17 9 SSE 1018,2 9 0,0
14.01.2018 16:00:00 5,2 1,7 5,2 5,1 7,9 8 5 15 8 SSE 1018,1 8 0,0
14.01.2018 15:00:00 4,2 1,2 5,0 5,0 7,9 9 5 19 10 SSE 1017,9 9 0,0
14.01.2018 14:00:00 3,9 0,8 4,8 4,8 7,9 11 6 18 10 SE 1018,2 8 0,0
14.01.2018 13:00:00 3,5 0,4 4,1 4,7 7,9 8 4 16 9 SE 1018,6 9 0,0
14.01.2018 12:00:00 3,0 0,7 2,9 4,5 7,9 8 4 12 6 E 1018,7 8 0,0
14.01.2018 11:00:00 2,1 0,3 1,7 4,5 7,9 7 4 11 6 ENE 1018,9 6 0,0
14.01.2018 10:00:00 1,5 -0,1 0,9 4,5 7,9 11 6 16 9 ENE 1018,8 6 0,0
14.01.2018 09:00:00 1,1 -0,5 0,8 4,5 7,9 10 6 15 8 ENE 1018,6 5 0,0
14.01.2018 08:00:00 1,2 -0,4 0,7 4,6 7,9 12 7 17 9 NE 1018,3 6 0,0
14.01.2018 07:00:00 1,2 -0,4 0,6 4,7 7,9 13 7 18 10 NE 1018,0 7 0,0
14.01.2018 06:00:00 1,4 -0,4 0,8 4,8 7,9 12 6 20 11 NE 1018,0 7 0,0
14.01.2018 05:00:00 1,4 -0,4 0,9 4,9 7,9 14 8 21 11 NE 1018,2 7 0,0
14.01.2018 04:00:00 1,6 -0,2 0,9 5,0 7,9 12 7 18 10 NE 1018,4 7 0,0
14.01.2018 03:00:00 1,7 -0,2 1,1 5,2 7,9 13 7 23 12 NE 1018,4 7 0,0
14.01.2018 02:00:00 2,0 0,1 1,3 5,4 7,9 15 8 22 12 NE 1018,4 7 0,0
14.01.2018 01:00:00 2,5 0,2 1,8 5,5 7,9 15 8 21 11 NE 1018,9 8 0,0
14.01.2018 00:00:00 3,1 0,3 2,5 5,7 7,9 15 8 19 11 NE 1019,4 9 0,0
13.01.2018 23:00:00 3,6 0,5 2,9 5,8 7,9 14 8 19 11 NNE 1019,8 12 0,0
13.01.2018 22:00:00 4,3 0,6 3,9 5,8 7,9 10 6 15 8 NE 1020,1 12 0,0
13.01.2018 21:00:00 4,4 0,7 4,0 5,9 7,9 10 6 29 16 E 1020,6 14 0,0
13.01.2018 20:00:00 4,2 1,2 4,0 6,0 7,9 8 5 17 9 ESE 1020,9 11 0,0
13.01.2018 19:00:00 4,2 1,2 3,9 6,0 7,9 8 4 19 11 E 1020,9 10 0,0
13.01.2018 18:00:00 4,3 1,0 4,0 6,0 7,9 11 6 23 12 E 1021,0 12 0,0
13.01.2018 17:00:00 4,3 0,8 4,1 6,1 7,9 14 7 27 15 E 1021,2 11 0,0
13.01.2018 16:00:00 4,5 1,2 4,1 6,1 7,9 14 8 31 17 ESE 1021,2 11 0,0
13.01.2018 15:00:00 4,6 1,6 4,4 6,1 7,9 15 8 25 13 SE 1021,5 10 0,0
13.01.2018 14:00:00 4,5 1,7 4,4 6,1 7,9 16 9 29 16 SE 1022,1 9 0,0
13.01.2018 13:00:00 4,3 2,2 4,5 6,0 7,9 19 10 28 15 SE 1022,7 7 0,0
13.01.2018 12:00:00 4,4 3,5 4,9 5,9 7,9 13 7 26 14 ESE 1023,3 4,6 0,0
13.01.2018 11:00:00 4,1 4,0 4,0 5,9 7,9 15 8 23 13 ESE 1023,5 3,9 0,0
13.01.2018 10:00:00 3,6 3,6 3,2 5,9 7,9 11 6 29 16 ESE 1023,8 3,0 0,0
13.01.2018 09:00:00 3,5 3,5 3,1 5,9 7,9 22 12 30 16 ESE 1023,6 2,0 0,0
13.01.2018 08:00:00 3,0 3,0 2,6 6,0 7,9 15 8 25 14 ESE 1023,5 0,4 0,0
13.01.2018 07:00:00 2,6 2,6 2,5 6,0 7,9 10 6 17 9 E 1023,8 0,2 0,0
13.01.2018 06:00:00 2,7 2,7 2,7 6,1 7,9 14 8 20 11 ESE 1024,0 0,1 0,2
13.01.2018 05:00:00 3,5 3,4 3,2 6,1 7,9 8 4 13 7 E 1024,2 0,4 0,0
13.01.2018 04:00:00 3,4 3,3 3,3 6,1 7,9 8 4 11 6 E 1024,6 0,1 0,0
13.01.2018 03:00:00 4,1 4,0 4,0 6,2 7,9 4 2 10 6 - 1024,8 0,3 0,0
13.01.2018 02:00:00 4,4 4,1 3,2 6,2 7,9 4 2 9 5 SSE 1025,0 0,1 0,0
13.01.2018 01:00:00 4,0 3,6 2,7 6,4 7,9 8 5 13 7 W 1025,6 0,9 0,0
13.01.2018 00:00:00 4,4 4,0 3,8 6,5 7,9 5 3 11 6 E 1025,8 1,1 0,0
12.01.2018 23:00:00 4,7 4,3 3,9 6,6 7,9 8 4 11 6 E 1025,8 0,6 0,0
12.01.2018 22:00:00 4,8 4,2 4,2 6,7 7,9 5 3 10 5 E 1026,2 3,0 0,0
12.01.2018 21:00:00 5,6 4,9 5,1 6,8 7,9 8 4 10 6 ESE 1026,3 3,5 0,0
12.01.2018 20:00:00 5,8 4,6 4,8 6,8 7,9 4 2 5 3 E 1026,4 2,8 0,0
12.01.2018 19:00:00 6,2 4,5 5,3 6,8 7,8 3 1 6 3 WSW 1026,4 3,0 0,0
12.01.2018 18:00:00 6,7 5,0 6,4 6,8 7,9 5 3 5 3 SW 1026,3 2,5 0,0
12.01.2018 17:00:00 6,9 4,9 6,9 6,8 7,9 2 1 8 5 S 1026,1 4,7 0,0
12.01.2018 16:00:00 7,1 5,1 7,5 6,7 7,9 5 3 8 4 E 1026,2 3,6 0,0
12.01.2018 15:00:00 7,0 5,0 7,5 6,6 7,9 5 3 10 6 ENE 1026,1 3,5 0,0
12.01.2018 14:00:00 6,6 4,9 7,0 6,5 7,9 5 3 13 7 E 1026,3 3,4 0,0
12.01.2018 13:00:00 6,3 4,8 6,8 6,4 7,9 8 4 16 9 NE 1026,7 4,0 0,0
12.01.2018 12:00:00 6,1 5,5 6,5 6,3 7,9 8 4 14 8 NNE 1027,1 3,2 0,0
12.01.2018 11:00:00 5,9 5,6 5,9 6,2 7,9 9 5 14 8 NNW 1027,4 2,5 0,0
12.01.2018 10:00:00 5,6 5,5 5,5 6,2 7,9 10 5 16 9 NNW 1027,1 2,0 0,0
12.01.2018 09:00:00 5,5 5,4 5,3 6,2 7,9 11 6 16 9 NW 1026,8 1,1 0,0
12.01.2018 08:00:00 5,3 5,2 5,1 6,2 7,9 8 4 13 7 WNW 1026,8 1,6 0,0
12.01.2018 07:00:00 5,1 5,0 4,9 6,2 7,9 6 3 10 5 NW 1026,2 0,5 0,0
12.01.2018 06:00:00 4,8 4,7 4,7 6,2 7,9 9 5 18 10 N 1026,0 0,8 0,0
12.01.2018 05:00:00 4,6 4,5 4,6 6,3 7,9 10 5 17 9 N 1026,0 0,6 0,0
12.01.2018 04:00:00 4,6 4,5 4,7 6,2 7,9 11 6 18 10 N 1025,7 0,7 0,0
12.01.2018 03:00:00 4,7 4,6 4,7 6,3 7,9 11 6 20 11 NNW 1025,5 0,3 0,0
12.01.2018 02:00:00 4,8 4,7 4,7 6,3 7,9 8 4 14 8 NW 1025,1 0,4 0,0
12.01.2018 01:00:00 4,5 4,4 4,5 6,3 7,9 5 3 14 7 NNW 1024,8 1,2 0,0
12.01.2018 00:00:00 4,3 4,2 4,4 6,4 7,9 7 4 22 12 N 1024,7 0,6 0,0
11.01.2018 23:00:00 4,3 4,2 4,4 6,4 7,9 11 6 19 10 NNW 1024,2 0,2 0,0
11.01.2018 22:00:00 4,7 4,6 4,8 6,5 7,9 12 7 20 11 NW 1023,8 0,7 0,0
11.01.2018 21:00:00 5,0 4,9 5,1 6,5 7,9 7 4 16 8 NNW 1023,4 0,4 0,0
11.01.2018 20:00:00 5,4 5,3 5,5 6,5 7,9 9 5 11 6 NNW 1022,5 0,6 0,0
11.01.2018 19:00:00 5,5 5,4 5,6 6,5 7,9 6 3 14 8 N 1021,5 0,7 0,0
11.01.2018 18:00:00 5,7 5,6 5,7 6,5 7,9 7 4 14 8 NNW 1020,8 0,7 0,0
11.01.2018 17:00:00 5,6 5,5 5,7 6,6 7,9 6 4 16 9 N 1020,1 1,1 0,0
11.01.2018 16:00:00 5,6 5,5 5,9 6,5 7,9 8 4 15 8 NW 1019,6 1,1 0,0
11.01.2018 15:00:00 5,8 5,7 5,9 6,4 7,9 8 4 14 8 N 1018,9 0,4 0,0
11.01.2018 14:00:00 5,7 5,6 6,1 6,4 7,9 3 1 11 6 N 1017,9 0,3 0,0
11.01.2018 13:00:00 5,3 5,2 5,5 6,2 7,9 2 1 10 6 W 1017,7 0,3 0,0
11.01.2018 12:00:00 4,9 4,8 5,2 6,1 7,9 4 2 9 5 - 1017,2 0,4 0,0
11.01.2018 11:00:00 4,7 4,6 5,1 6,0 7,9 3 2 10 5 ENE 1016,8 0,2 0,0
11.01.2018 10:00:00 5,0 4,9 4,5 6,0 7,9 5 3 10 5 SSE 1015,9 0,3 0,2
11.01.2018 09:00:00 4,5 4,4 4,4 6,0 7,9 4 2 6 3 WNW 1015,0 0,4 0,0
11.01.2018 08:00:00 4,5 4,4 4,4 6,0 7,9 3 1 9 5 SE 1014,1 0,2 0,0
11.01.2018 07:00:00 4,6 4,5 4,5 6,0 7,9 0 0 10 5 N 1013,0 0,3 0,0
11.01.2018 06:00:00 4,9 4,8 4,8 6,0 7,9 2 1 11 6 S 1012,2 0,1 0,0
11.01.2018 05:00:00 5,4 5,3 4,1 6,0 7,9 8 4 13 7 S 1011,5 0,2 0,0
11.01.2018 04:00:00 4,5 4,4 1,3 6,1 7,9 2 1 5 3 SE 1011,3 0,2 0,0
11.01.2018 03:00:00 4,5 4,4 2,8 6,2 7,9 8 4 12 7 ESE 1010,9 0,4 0,0
11.01.2018 02:00:00 5,3 5,0 3,7 6,4 7,9 6 3 9 5 ESE 1010,1 0,1 0,0
11.01.2018 01:00:00 5,6 5,2 4,5 6,4 7,9 4 2 10 5 SE 1009,9 0,7 0,0

tt = Température de l'air
td = dewpoint
tt 5cm = Température de l'air 5cm
tt -20cm = Température de l'air -20cm
tt -100cm = Température de l'air -100cm
ff = Vitesse du vent
fx = gusts
dd = Direction du vent
ppp = reduced air pressure
vv = visibility
rr = Quantités de précipitations

stations d'obs. à proximité